,,,PA_Meas_PMT16A,,PR_Meas_QMR101_102,,RH_Meas_QMH101,,SR_Meas_QMS101,,TA_Meas_QMH101,,GenWind,,GenWind,
date,time,status,PA,status,PR,status,RH,status,SR,status,TA,status,DirAvg,status,SpdAvg,
2011-03-28, 00:00:04,VALID,1009.25,VALID,0,VALID,102.658,VALID,0,VALID,24.0448,VALID,344,VALID,0,
2011-03-28, 00:01:04,VALID,1009.24,VALID,0,VALID,102.643,VALID,0,VALID,24.0253,VALID,344,VALID,0,
2011-03-28, 00:02:04,VALID,1009.21,VALID,0,VALID,102.62,VALID,0,VALID,24.0448,VALID,344,VALID,0,
2011-03-28, 00:03:04,VALID,1009.21,VALID,0,VALID,102.65,VALID,0,VALID,24.0448,VALID,344,VALID,0,
2011-03-28, 00:04:04,VALID,1009.22,VALID,0,VALID,102.643,VALID,0,VALID,24.0253,VALID,344,VALID,0,
2011-03-28, 00:05:04,VALID,1009.19,VALID,0,VALID,102.643,VALID,0,VALID,24.0058,VALID,344,VALID,0,
2011-03-28, 00:06:04,VALID,1009.18,VALID,0,VALID,102.643,VALID,0,VALID,24.0058,VALID,344,VALID,0,
2011-03-28, 00:07:04,VALID,1009.15,VALID,0,VALID,102.62,VALID,0,VALID,24.0058,VALID,344,VALID,0,
2011-03-28, 00:08:04,VALID,1009.14,VALID,0,VALID,102.612,VALID,0,VALID,23.9863,VALID,344,VALID,0.183984,
2011-03-28, 00:09:04,VALID,1009.11,VALID,0,VALID,102.582,VALID,0.105969,VALID,23.9845,VALID,344,VALID,0.0117188,
2011-03-28, 00:10:04,VALID,1009.09,VALID,0,VALID,102.582,VALID,0.105969,VALID,24.004,VALID,344,VALID,0,
2011-03-28, 00:11:04,VALID,1009.11,VALID,0,VALID,102.559,VALID,0.105969,VALID,23.9845,VALID,344,VALID,0,
2011-03-28, 00:12:04,VALID,1009.09,VALID,0,VALID,102.544,VALID,0.105969,VALID,23.9845,VALID,344,VALID,0,
2011-03-28, 00:13:04,VALID,1009.09,VALID,0,VALID,102.566,VALID,0.105969,VALID,23.9845,VALID,344,VALID,0,
2011-03-28, 00:14:04,VALID,1009.07,VALID,0,VALID,102.544,VALID,0,VALID,23.965,VALID,344,VALID,0,
2011-03-28, 00:15:04,VALID,1009.04,VALID,0,VALID,102.513,VALID,0.105969,VALID,23.9242,VALID,344,VALID,0,
2011-03-28, 00:16:04,VALID,1009.02,VALID,0,VALID,102.513,VALID,0.105969,VALID,23.9242,VALID,344,VALID,0,
2011-03-28, 00:17:04,VALID,1009.02,VALID,0,VALID,102.566,VALID,0.105969,VALID,23.9455,VALID,344,VALID,0,
2011-03-28, 00:18:04,VALID,1009.04,VALID,0,VALID,102.589,VALID,0.105969,VALID,23.9473,VALID,344,VALID,0,
2011-03-28, 00:19:04,VALID,1009.03,VALID,0,VALID,102.681,VALID,0.105969,VALID,23.9047,VALID,344,VALID,0,
2011-03-28, 00:20:04,VALID,1008.99,VALID,0,VALID,102.688,VALID,0.105969,VALID,23.8871,VALID,344,VALID,0,
2011-03-28, 00:21:04,VALID,1008.97,VALID,0,VALID,102.765,VALID,0.105969,VALID,23.8871,VALID,344,VALID,0,
2011-03-28, 00:22:04,VALID,1008.97,VALID,0,VALID,102.803,VALID,0.105969,VALID,23.8871,VALID,344,VALID,0,
2011-03-28, 00:23:04,VALID,1008.94,VALID,0,VALID,102.849,VALID,0.105969,VALID,23.8658,VALID,344,VALID,0,
2011-03-28, 00:24:04,VALID,1008.93,VALID,0,VALID,102.894,VALID,0,VALID,23.8499,VALID,344,VALID,0,
2011-03-28, 00:25:04,VALID,1008.89,VALID,0,VALID,102.955,VALID,0,VALID,23.8499,VALID,344,VALID,0,
2011-03-28, 00:26:04,VALID,1008.92,VALID,0,VALID,102.986,VALID,0,VALID,23.8499,VALID,344,VALID,0,
2011-03-28, 00:27:04,VALID,1008.88,VALID,0,VALID,103.016,VALID,0,VALID,23.8304,VALID,344,VALID,0.341797,
2011-03-28, 00:28:04,VALID,1008.88,VALID,0,VALID,103.077,VALID,0,VALID,23.8499,VALID,344,VALID,0.244141,
2011-03-28, 00:29:04,VALID,1008.85,VALID,0,VALID,103.047,VALID,0,VALID,23.8499,VALID,344,VALID,0.469531,
2011-03-28, 00:30:04,VALID,1008.82,VALID,0,VALID,103.009,VALID,0,VALID,23.8286,VALID,344,VALID,0.253516,
2011-03-28, 00:31:04,VALID,1008.8,VALID,0,VALID,102.963,VALID,0,VALID,23.8499,VALID,344,VALID,0.199609,
2011-03-28, 00:32:04,VALID,1008.79,VALID,0,VALID,102.94,VALID,0,VALID,23.8286,VALID,344,VALID,0,
2011-03-28, 00:33:04,VALID,1008.75,VALID,0,VALID,102.91,VALID,0,VALID,23.8091,VALID,344,VALID,0.00429688,
2011-03-28, 00:34:04,VALID,1008.73,VALID,0,VALID,102.963,VALID,0,VALID,23.7896,VALID,344,VALID,0,
2011-03-28, 00:35:04,VALID,1008.73,VALID,0,VALID,102.963,VALID,0,VALID,23.7914,VALID,344,VALID,0,
2011-03-28, 00:36:04,VALID,1008.74,VALID,0,VALID,103.001,VALID,0,VALID,23.7914,VALID,344,VALID,0,
2011-03-28, 00:37:04,VALID,1008.73,VALID,0,VALID,103.054,VALID,0,VALID,23.772,VALID,344,VALID,0,
2011-03-28, 00:38:04,VALID,1008.76,VALID,0,VALID,103.1,VALID,0,VALID,23.7507,VALID,344,VALID,0,
2011-03-28, 00:39:04,VALID,1008.72,VALID,0,VALID,103.146,VALID,0,VALID,23.7525,VALID,344,VALID,0,
2011-03-28, 00:40:04,VALID,1008.72,VALID,0,VALID,103.184,VALID,0,VALID,23.7525,VALID,344,VALID,0,
2011-03-28, 00:41:04,VALID,1008.73,VALID,0,VALID,103.199,VALID,0,VALID,23.7525,VALID,344,VALID,0,
2011-03-28, 00:42:04,VALID,1008.74,VALID,0,VALID,103.199,VALID,0,VALID,23.733,VALID,344,VALID,0,
2011-03-28, 00:43:04,VALID,1008.74,VALID,0,VALID,103.23,VALID,0,VALID,23.733,VALID,344,VALID,0,
2011-03-28, 00:44:04,VALID,1008.74,VALID,0,VALID,103.253,VALID,0,VALID,23.7135,VALID,344,VALID,0,
2011-03-28, 00:45:04,VALID,1008.7,VALID,0,VALID,103.26,VALID,0,VALID,23.694,VALID,344,VALID,0,
2011-03-28, 00:46:04,VALID,1008.68,VALID,0,VALID,103.298,VALID,0,VALID,23.6745,VALID,344,VALID,0,
2011-03-28, 00:47:04,VALID,1008.68,VALID,0,VALID,103.314,VALID,0,VALID,23.6745,VALID,344,VALID,0,
2011-03-28, 00:48:04,VALID,1008.65,VALID,0,VALID,103.375,VALID,0,VALID,23.6763,VALID,344,VALID,0,
2011-03-28, 00:49:04,VALID,1008.65,VALID,0,VALID,103.398,VALID,0,VALID,23.6356,VALID,344,VALID,0,
2011-03-28, 00:50:04,VALID,1008.63,VALID,0,VALID,103.428,VALID,0,VALID,23.6356,VALID,344,VALID,0,
2011-03-28, 00:51:04,VALID,1008.61,VALID,0,VALID,103.512,VALID,0,VALID,23.655,VALID,344,VALID,0,
2011-03-28, 00:52:04,VALID,1008.64,VALID,0,VALID,103.581,VALID,0.105969,VALID,23.6338,VALID,344,VALID,0,
2011-03-28, 00:53:04,VALID,1008.63,VALID,0,VALID,103.611,VALID,0,VALID,23.6532,VALID,344,VALID,0,
2011-03-28, 00:54:04,VALID,1008.64,VALID,0,VALID,103.634,VALID,0,VALID,23.6745,VALID,344,VALID,0,
2011-03-28, 00:55:04,VALID,1008.64,VALID,0,VALID,103.657,VALID,0,VALID,23.6745,VALID,344,VALID,0,
2011-03-28, 00:56:04,VALID,1008.64,VALID,0,VALID,103.634,VALID,0,VALID,23.694,VALID,344,VALID,0,
2011-03-28, 00:57:04,VALID,1008.6,VALID,0,VALID,103.634,VALID,0,VALID,23.694,VALID,344,VALID,0,
2011-03-28, 00:58:04,VALID,1008.58,VALID,0,VALID,103.596,VALID,0,VALID,23.694,VALID,344,VALID,0,
2011-03-28, 00:59:04,VALID,1008.57,VALID,0,VALID,103.581,VALID,0,VALID,23.6727,VALID,344,VALID,0,
2011-03-28, 01:00:04,VALID,1008.62,VALID,0,VALID,103.565,VALID,0,VALID,23.6745,VALID,344,VALID,0,
2011-03-28, 01:01:04,VALID,1008.62,VALID,0,VALID,103.535,VALID,0,VALID,23.655,VALID,344,VALID,0,
2011-03-28, 01:02:04,VALID,1008.63,VALID,0,VALID,103.535,VALID,0,VALID,23.655,VALID,344,VALID,0,
2011-03-28, 01:03:04,VALID,1008.63,VALID,0,VALID,103.527,VALID,0,VALID,23.6745,VALID,344,VALID,0,
2011-03-28, 01:04:04,VALID,1008.63,VALID,0,VALID,103.527,VALID,0,VALID,23.6745,VALID,344,VALID,0,
2011-03-28, 01:05:04,VALID,1008.63,VALID,0,VALID,103.535,VALID,0,VALID,23.6532,VALID,344,VALID,0,
2011-03-28, 01:06:04,VALID,1008.61,VALID,0,VALID,103.512,VALID,0,VALID,23.6745,VALID,344,VALID,0,
2011-03-28, 01:07:04,VALID,1008.63,VALID,0,VALID,103.535,VALID,0.105969,VALID,23.6745,VALID,344,VALID,0,
2011-03-28, 01:08:04,VALID,1008.64,VALID,0,VALID,103.489,VALID,0,VALID,23.655,VALID,344,VALID,0,
2011-03-28, 01:09:04,VALID,1008.67,VALID,0,VALID,103.52,VALID,0,VALID,23.6143,VALID,344,VALID,0,
2011-03-28, 01:10:04,VALID,1008.67,VALID,0,VALID,103.535,VALID,0,VALID,23.6356,VALID,344,VALID,0,
2011-03-28, 01:11:04,VALID,1008.64,VALID,0,VALID,103.573,VALID,0,VALID,23.5948,VALID,344,VALID,0,
2011-03-28, 01:12:04,VALID,1008.63,VALID,0,VALID,103.596,VALID,0,VALID,23.6161,VALID,344,VALID,0,
2011-03-28, 01:13:04,VALID,1008.64,VALID,0,VALID,103.588,VALID,0,VALID,23.6161,VALID,344,VALID,0,
2011-03-28, 01:14:04,VALID,1008.62,VALID,0,VALID,103.626,VALID,0.105969,VALID,23.5966,VALID,344,VALID,0,
2011-03-28, 01:15:04,VALID,1008.64,VALID,0,VALID,103.626,VALID,0,VALID,23.5771,VALID,344,VALID,0,
2011-03-28, 01:16:04,VALID,1008.6,VALID,0,VALID,103.657,VALID,0,VALID,23.5576,VALID,344,VALID,0,
2011-03-28, 01:17:04,VALID,1008.6,VALID,0,VALID,103.657,VALID,0,VALID,23.5576,VALID,344,VALID,0,
2011-03-28, 01:18:04,VALID,1008.6,VALID,0,VALID,103.718,VALID,0,VALID,23.5576,VALID,344,VALID,0,
2011-03-28, 01:19:04,VALID,1008.6,VALID,0,VALID,103.748,VALID,0,VALID,23.5576,VALID,344,VALID,0,
2011-03-28, 01:20:04,VALID,1008.61,VALID,0,VALID,103.771,VALID,0,VALID,23.5576,VALID,344,VALID,0,
2011-03-28, 01:21:04,VALID,1008.61,VALID,0,VALID,103.741,VALID,0,VALID,23.5576,VALID,344,VALID,0,
2011-03-28, 01:22:04,VALID,1008.58,VALID,0,VALID,103.756,VALID,0,VALID,23.5576,VALID,344,VALID,0,
2011-03-28, 01:23:04,VALID,1008.58,VALID,0,VALID,103.771,VALID,0,VALID,23.5576,VALID,344,VALID,0,
2011-03-28, 01:24:04,VALID,1008.55,VALID,0,VALID,103.825,VALID,0,VALID,23.5381,VALID,344,VALID,0,
2011-03-28, 01:25:04,VALID,1008.51,VALID,0,VALID,103.825,VALID,0,VALID,23.5381,VALID,344,VALID,0,
2011-03-28, 01:26:04,VALID,1008.52,VALID,0,VALID,103.794,VALID,0,VALID,23.5186,VALID,344,VALID,0,
2011-03-28, 01:27:04,VALID,1008.5,VALID,0,VALID,103.787,VALID,0.105969,VALID,23.4779,VALID,344,VALID,0,
2011-03-28, 01:28:04,VALID,1008.48,VALID,0,VALID,103.771,VALID,0,VALID,23.4797,VALID,344,VALID,0,
2011-03-28, 01:29:04,VALID,1008.46,VALID,0,VALID,103.794,VALID,0,VALID,23.4797,VALID,344,VALID,0,
2011-03-28, 01:30:04,VALID,1008.49,VALID,0,VALID,103.794,VALID,0,VALID,23.4602,VALID,344,VALID,0,
2011-03-28, 01:31:04,VALID,1008.49,VALID,0,VALID,103.848,VALID,0,VALID,23.4389,VALID,344,VALID,0,
2011-03-28, 01:32:04,VALID,1008.5,VALID,0,VALID,103.87,VALID,0,VALID,23.4407,VALID,344,VALID,0,
2011-03-28, 01:33:04,VALID,1008.51,VALID,0,VALID,103.893,VALID,0,VALID,23.4194,VALID,344,VALID,0,
2011-03-28, 01:34:04,VALID,1008.51,VALID,0,VALID,103.916,VALID,0.105969,VALID,23.4407,VALID,344,VALID,0,
2011-03-28, 01:35:04,VALID,1008.49,VALID,0,VALID,103.939,VALID,0,VALID,23.4407,VALID,344,VALID,0,
2011-03-28, 01:36:04,VALID,1008.46,VALID,0,VALID,103.97,VALID,0,VALID,23.4407,VALID,344,VALID,0,
2011-03-28, 01:37:04,VALID,1008.44,VALID,0,VALID,103.97,VALID,0,VALID,23.4407,VALID,344,VALID,0,
2011-03-28, 01:38:04,VALID,1008.39,VALID,0,VALID,103.985,VALID,0,VALID,23.4,VALID,344,VALID,0,
2011-03-28, 01:39:04,VALID,1008.37,VALID,0,VALID,103.97,VALID,0,VALID,23.4017,VALID,344,VALID,0,
2011-03-28, 01:40:04,VALID,1008.37,VALID,0,VALID,103.939,VALID,0,VALID,23.3628,VALID,344,VALID,0,
2011-03-28, 01:41:04,VALID,1008.3,VALID,0,VALID,103.97,VALID,0,VALID,23.3433,VALID,344,VALID,0,
2011-03-28, 01:42:04,VALID,1008.3,VALID,0,VALID,103.985,VALID,0,VALID,23.3433,VALID,344,VALID,0,
2011-03-28, 01:43:04,VALID,1008.27,VALID,0,VALID,104,VALID,0,VALID,23.3433,VALID,344,VALID,0,
2011-03-28, 01:44:04,VALID,1008.27,VALID,0,VALID,104,VALID,0,VALID,23.3238,VALID,344,VALID,0,
2011-03-28, 01:45:04,VALID,1008.28,VALID,0,VALID,104,VALID,0,VALID,23.3043,VALID,344,VALID,0,
2011-03-28, 01:46:04,VALID,1008.27,VALID,0,VALID,104,VALID,0,VALID,23.3043,VALID,344,VALID,0,
2011-03-28, 01:47:04,VALID,1008.28,VALID,0,VALID,104,VALID,0,VALID,23.2848,VALID,344,VALID,0,
2011-03-28, 01:48:04,VALID,1008.23,VALID,0,VALID,104,VALID,0,VALID,23.2654,VALID,344,VALID,0,
2011-03-28, 01:49:04,VALID,1008.24,VALID,0,VALID,104,VALID,0,VALID,23.2459,VALID,344,VALID,0,
2011-03-28, 01:50:04,VALID,1008.2,VALID,0,VALID,104,VALID,0,VALID,23.2051,VALID,344,VALID,0,
2011-03-28, 01:51:04,VALID,1008.22,VALID,0,VALID,104,VALID,0,VALID,23.2264,VALID,344,VALID,0,
2011-03-28, 01:52:04,VALID,1008.21,VALID,0,VALID,104,VALID,0,VALID,23.2069,VALID,344,VALID,0,
2011-03-28, 01:53:04,VALID,1008.18,VALID,0,VALID,104,VALID,0,VALID,23.2069,VALID,344,VALID,0,
2011-03-28, 01:54:04,VALID,1008.16,VALID,0,VALID,104,VALID,0,VALID,23.1874,VALID,344,VALID,0,
2011-03-28, 01:55:04,VALID,1008.15,VALID,0,VALID,104,VALID,0,VALID,23.1679,VALID,344,VALID,0,
2011-03-28, 01:56:04,VALID,1008.14,VALID,0,VALID,104,VALID,0,VALID,23.1874,VALID,344,VALID,0,
2011-03-28, 01:57:04,VALID,1008.14,VALID,0,VALID,104,VALID,0,VALID,23.1679,VALID,344,VALID,0,
2011-03-28, 01:58:04,VALID,1008.14,VALID,0,VALID,104,VALID,0,VALID,23.1874,VALID,344,VALID,0,
2011-03-28, 01:59:04,VALID,1008.14,VALID,0,VALID,104,VALID,0,VALID,23.1874,VALID,344,VALID,0,
2011-03-28, 02:00:04,VALID,1008.15,VALID,0,VALID,104,VALID,0,VALID,23.1467,VALID,344,VALID,0,
2011-03-28, 02:01:04,VALID,1008.16,VALID,0,VALID,104,VALID,0,VALID,23.1679,VALID,344,VALID,0,
2011-03-28, 02:02:04,VALID,1008.19,VALID,0,VALID,104,VALID,0,VALID,23.1467,VALID,344,VALID,0,
2011-03-28, 02:03:04,VALID,1008.16,VALID,0,VALID,104,VALID,0,VALID,23.1874,VALID,344,VALID,0,
2011-03-28, 02:04:04,VALID,1008.15,VALID,0,VALID,104,VALID,0,VALID,23.2069,VALID,344,VALID,0,
2011-03-28, 02:05:04,VALID,1008.12,VALID,0,VALID,104,VALID,0,VALID,23.2069,VALID,344,VALID,0,
2011-03-28, 02:06:04,VALID,1008.08,VALID,0,VALID,104,VALID,0,VALID,23.1857,VALID,344,VALID,0,
2011-03-28, 02:07:04,VALID,1008.12,VALID,0,VALID,104,VALID,0.105969,VALID,23.2051,VALID,344,VALID,0,
2011-03-28, 02:08:04,VALID,1008.14,VALID,0,VALID,104,VALID,0,VALID,23.1857,VALID,344,VALID,0,
2011-03-28, 02:09:04,VALID,1008.16,VALID,0,VALID,104,VALID,0,VALID,23.2069,VALID,344,VALID,0,
2011-03-28, 02:10:04,VALID,1008.14,VALID,0,VALID,104,VALID,0,VALID,23.2069,VALID,344,VALID,0,
2011-03-28, 02:11:04,VALID,1008.16,VALID,0,VALID,104,VALID,0,VALID,23.2069,VALID,344,VALID,0,
2011-03-28, 02:12:04,VALID,1008.16,VALID,0,VALID,104,VALID,0,VALID,23.1874,VALID,344,VALID,0,
2011-03-28, 02:13:04,VALID,1008.14,VALID,0,VALID,104,VALID,0,VALID,23.2069,VALID,344,VALID,0,
2011-03-28, 02:14:04,VALID,1008.13,VALID,0,VALID,104,VALID,0,VALID,23.2069,VALID,344,VALID,0,
2011-03-28, 02:15:04,VALID,1008.1,VALID,0,VALID,104,VALID,0,VALID,23.2069,VALID,344,VALID,0,
2011-03-28, 02:16:04,VALID,1008.08,VALID,0,VALID,104,VALID,0,VALID,23.1874,VALID,344,VALID,0,
2011-03-28, 02:17:04,VALID,1008.07,VALID,0,VALID,104,VALID,0,VALID,23.2069,VALID,344,VALID,0,
2011-03-28, 02:18:04,VALID,1008.09,VALID,0,VALID,104,VALID,0,VALID,23.2282,VALID,344,VALID,0,
2011-03-28, 02:19:04,VALID,1008.11,VALID,0,VALID,104,VALID,0,VALID,23.2069,VALID,344,VALID,0,
2011-03-28, 02:20:04,VALID,1008.15,VALID,0,VALID,104,VALID,0,VALID,23.1857,VALID,344,VALID,0,
2011-03-28, 02:21:04,VALID,1008.18,VALID,0,VALID,104,VALID,0,VALID,23.2069,VALID,344,VALID,0,
2011-03-28, 02:22:04,VALID,1008.19,VALID,0,VALID,104,VALID,0,VALID,23.2264,VALID,344,VALID,0,
2011-03-28, 02:23:04,VALID,1008.21,VALID,0,VALID,104,VALID,0,VALID,23.2051,VALID,344,VALID,0,
2011-03-28, 02:24:04,VALID,1008.21,VALID,0,VALID,104,VALID,0,VALID,23.2264,VALID,344,VALID,0,
2011-03-28, 02:25:04,VALID,1008.16,VALID,0,VALID,104,VALID,0,VALID,23.2459,VALID,344,VALID,0,
2011-03-28, 02:26:04,VALID,1008.14,VALID,0,VALID,104,VALID,0,VALID,23.2459,VALID,344,VALID,0,
2011-03-28, 02:27:04,VALID,1008.16,VALID,0,VALID,104,VALID,0,VALID,23.2069,VALID,344,VALID,0,
2011-03-28, 02:28:04,VALID,1008.18,VALID,0,VALID,104,VALID,0,VALID,23.1874,VALID,344,VALID,0,
2011-03-28, 02:29:04,VALID,1008.19,VALID,0,VALID,104,VALID,0,VALID,23.1679,VALID,344,VALID,0,
2011-03-28, 02:30:04,VALID,1008.21,VALID,0,VALID,104,VALID,0,VALID,23.1485,VALID,344,VALID,0,
2011-03-28, 02:31:04,VALID,1008.21,VALID,0,VALID,104,VALID,0,VALID,23.1095,VALID,344,VALID,0,
2011-03-28, 02:32:04,VALID,1008.2,VALID,0,VALID,104,VALID,0,VALID,23.0883,VALID,344,VALID,0,
2011-03-28, 02:33:04,VALID,1008.22,VALID,0,VALID,104,VALID,0,VALID,23.1095,VALID,344,VALID,0,
2011-03-28, 02:34:04,VALID,1008.19,VALID,0,VALID,104,VALID,0,VALID,23.1095,VALID,344,VALID,0,
2011-03-28, 02:35:04,VALID,1008.18,VALID,0,VALID,104,VALID,0,VALID,23.1095,VALID,344,VALID,0,
2011-03-28, 02:36:04,VALID,1008.15,VALID,0,VALID,104,VALID,0,VALID,23.09,VALID,344,VALID,0,
2011-03-28, 02:37:04,VALID,1008.14,VALID,0,VALID,104,VALID,0,VALID,23.09,VALID,344,VALID,0,
2011-03-28, 02:38:04,VALID,1008.11,VALID,0,VALID,104,VALID,0,VALID,23.0493,VALID,344,VALID,0,
2011-03-28, 02:39:04,VALID,1008.08,VALID,0,VALID,104,VALID,0,VALID,23.0705,VALID,344,VALID,0,
2011-03-28, 02:40:04,VALID,1008.07,VALID,0,VALID,104,VALID,0,VALID,23.0511,VALID,344,VALID,0,
2011-03-28, 02:41:04,VALID,1008.03,VALID,0,VALID,104,VALID,0,VALID,23.0103,VALID,344,VALID,0,
2011-03-28, 02:42:04,VALID,1008.02,VALID,0,VALID,104,VALID,0,VALID,23.0316,VALID,344,VALID,0,
2011-03-28, 02:43:04,VALID,1008,VALID,0,VALID,104,VALID,0,VALID,23.0121,VALID,344,VALID,0,
2011-03-28, 02:44:04,VALID,1008,VALID,0,VALID,104,VALID,0,VALID,22.9926,VALID,344,VALID,0,
2011-03-28, 02:45:04,VALID,1008,VALID,0,VALID,104,VALID,0,VALID,22.9926,VALID,344,VALID,0,
2011-03-28, 02:46:04,VALID,1007.99,VALID,0,VALID,104,VALID,0,VALID,22.9926,VALID,344,VALID,0,
2011-03-28, 02:47:04,VALID,1007.98,VALID,0,VALID,104,VALID,0,VALID,22.9926,VALID,344,VALID,0,
2011-03-28, 02:48:04,VALID,1007.96,VALID,0,VALID,104,VALID,0,VALID,23.0121,VALID,344,VALID,0,
2011-03-28, 02:49:04,VALID,1007.96,VALID,0,VALID,104,VALID,0,VALID,22.9926,VALID,344,VALID,0,
2011-03-28, 02:50:04,VALID,1007.93,VALID,0,VALID,104,VALID,0,VALID,22.9731,VALID,344,VALID,0,
2011-03-28, 02:51:04,VALID,1007.93,VALID,0,VALID,104,VALID,0,VALID,22.9536,VALID,344,VALID,0,
2011-03-28, 02:52:04,VALID,1007.94,VALID,0,VALID,104,VALID,0,VALID,22.9342,VALID,344,VALID,0,
2011-03-28, 02:53:04,VALID,1007.92,VALID,0,VALID,104,VALID,0,VALID,22.8757,VALID,344,VALID,0,
2011-03-28, 02:54:04,VALID,1007.9,VALID,0,VALID,104,VALID,0,VALID,22.8545,VALID,344,VALID,0,
2011-03-28, 02:55:05,VALID,1007.91,VALID,0,VALID,104,VALID,0,VALID,22.8562,VALID,344,VALID,0,
2011-03-28, 02:56:05,VALID,1007.89,VALID,0,VALID,104,VALID,0,VALID,22.8368,VALID,344,VALID,0,
2011-03-28, 02:57:05,VALID,1007.87,VALID,0,VALID,104,VALID,0,VALID,22.8173,VALID,344,VALID,0,
2011-03-28, 02:58:05,VALID,1007.89,VALID,0,VALID,104,VALID,0,VALID,22.8385,VALID,344,VALID,0,
2011-03-28, 02:59:05,VALID,1007.86,VALID,0,VALID,104,VALID,0,VALID,22.7978,VALID,344,VALID,0,
2011-03-28, 03:00:05,VALID,1007.87,VALID,0,VALID,104,VALID,0,VALID,22.7783,VALID,344,VALID,0,
2011-03-28, 03:01:05,VALID,1007.86,VALID,0,VALID,104,VALID,0,VALID,22.7571,VALID,344,VALID,0,
2011-03-28, 03:02:05,VALID,1007.83,VALID,0,VALID,104,VALID,0,VALID,22.7978,VALID,344,VALID,0,
2011-03-28, 03:03:05,VALID,1007.83,VALID,0,VALID,104,VALID,0,VALID,22.8173,VALID,344,VALID,0,
2011-03-28, 03:04:05,VALID,1007.81,VALID,0,VALID,104,VALID,0,VALID,22.819,VALID,344,VALID,0,
2011-03-28, 03:05:05,VALID,1007.81,VALID,0,VALID,104,VALID,0,VALID,22.7783,VALID,344,VALID,0,
2011-03-28, 03:06:05,VALID,1007.81,VALID,0,VALID,104,VALID,0,VALID,22.7978,VALID,344,VALID,0,
2011-03-28, 03:07:05,VALID,1007.78,VALID,0,VALID,104,VALID,0,VALID,22.819,VALID,344,VALID,0,
2011-03-28, 03:08:05,VALID,1007.77,VALID,0,VALID,104,VALID,0,VALID,22.8173,VALID,344,VALID,0,
2011-03-28, 03:09:05,VALID,1007.77,VALID,0,VALID,104,VALID,0,VALID,22.8173,VALID,344,VALID,0,
2011-03-28, 03:10:05,VALID,1007.81,VALID,0,VALID,104,VALID,0,VALID,22.7978,VALID,344,VALID,0,
2011-03-28, 03:11:05,VALID,1007.82,VALID,0,VALID,104,VALID,0,VALID,22.8173,VALID,344,VALID,0,
2011-03-28, 03:12:05,VALID,1007.86,VALID,0,VALID,104,VALID,0,VALID,22.819,VALID,344,VALID,0,
2011-03-28, 03:13:05,VALID,1007.91,VALID,0,VALID,104,VALID,0,VALID,22.7978,VALID,344,VALID,0,
2011-03-28, 03:14:05,VALID,1007.89,VALID,0,VALID,104,VALID,0,VALID,22.7978,VALID,344,VALID,0,
2011-03-28, 03:15:05,VALID,1007.9,VALID,0,VALID,104,VALID,0,VALID,22.7978,VALID,344,VALID,0,
2011-03-28, 03:16:05,VALID,1007.93,VALID,0,VALID,104,VALID,0,VALID,22.7978,VALID,344,VALID,0,
2011-03-28, 03:17:05,VALID,1007.91,VALID,0,VALID,104,VALID,0,VALID,22.7978,VALID,344,VALID,0,
2011-03-28, 03:18:05,VALID,1007.91,VALID,0,VALID,104,VALID,0,VALID,22.8173,VALID,344,VALID,0,
2011-03-28, 03:19:05,VALID,1007.92,VALID,0,VALID,104,VALID,0,VALID,22.8173,VALID,344,VALID,0,
2011-03-28, 03:20:05,VALID,1007.91,VALID,0,VALID,104,VALID,0,VALID,22.7978,VALID,344,VALID,0,
2011-03-28, 03:21:05,VALID,1007.93,VALID,0,VALID,104,VALID,0,VALID,22.7783,VALID,344,VALID,0,
2011-03-28, 03:22:05,VALID,1007.93,VALID,0,VALID,104,VALID,0,VALID,22.7588,VALID,344,VALID,0,
2011-03-28, 03:23:05,VALID,1007.92,VALID,0,VALID,104,VALID,0,VALID,22.7588,VALID,344,VALID,0,
2011-03-28, 03:24:05,VALID,1007.93,VALID,0,VALID,104,VALID,0,VALID,22.7588,VALID,344,VALID,0,
2011-03-28, 03:25:05,VALID,1007.93,VALID,0,VALID,104,VALID,0,VALID,22.7588,VALID,344,VALID,0,
2011-03-28, 03:26:05,VALID,1007.92,VALID,0,VALID,104,VALID,0,VALID,22.7783,VALID,344,VALID,0,
2011-03-28, 03:27:05,VALID,1007.91,VALID,0,VALID,104,VALID,0,VALID,22.7978,VALID,344,VALID,0,
2011-03-28, 03:28:05,VALID,1007.89,VALID,0,VALID,104,VALID,0,VALID,22.7961,VALID,344,VALID,0,
2011-03-28, 03:29:05,VALID,1007.9,VALID,0,VALID,104,VALID,0,VALID,22.8368,VALID,344,VALID,0,
2011-03-28, 03:30:05,VALID,1007.93,VALID,0,VALID,104,VALID,0,VALID,22.8368,VALID,344,VALID,0,
2011-03-28, 03:31:05,VALID,1007.9,VALID,0,VALID,104,VALID,0.105969,VALID,22.835,VALID,344,VALID,0,
2011-03-28, 03:32:05,VALID,1007.91,VALID,0,VALID,104,VALID,0,VALID,22.835,VALID,344,VALID,0,
2011-03-28, 03:33:05,VALID,1007.89,VALID,0,VALID,104,VALID,0,VALID,22.8562,VALID,344,VALID,0,
2011-03-28, 03:34:05,VALID,1007.87,VALID,0,VALID,104,VALID,0,VALID,22.8562,VALID,344,VALID,0,
2011-03-28, 03:35:05,VALID,1007.86,VALID,0,VALID,104,VALID,0,VALID,22.8757,VALID,344,VALID,0,
2011-03-28, 03:36:05,VALID,1007.88,VALID,0,VALID,104,VALID,0,VALID,22.8562,VALID,344,VALID,0,
2011-03-28, 03:37:05,VALID,1007.88,VALID,0,VALID,104,VALID,0,VALID,22.8757,VALID,344,VALID,0,
2011-03-28, 03:38:05,VALID,1007.91,VALID,0,VALID,104,VALID,0,VALID,22.874,VALID,344,VALID,0,
2011-03-28, 03:39:05,VALID,1007.92,VALID,0,VALID,104,VALID,0,VALID,22.8935,VALID,344,VALID,0,
2011-03-28, 03:40:05,VALID,1007.93,VALID,0,VALID,104,VALID,0,VALID,22.9147,VALID,344,VALID,0,
2011-03-28, 03:41:05,VALID,1007.93,VALID,0,VALID,104,VALID,0,VALID,22.9342,VALID,344,VALID,0,
2011-03-28, 03:42:05,VALID,1007.89,VALID,0,VALID,104,VALID,0,VALID,22.9129,VALID,344,VALID,0,
2011-03-28, 03:43:05,VALID,1007.88,VALID,0,VALID,104,VALID,0,VALID,22.9342,VALID,344,VALID,0,
2011-03-28, 03:44:05,VALID,1007.9,VALID,0,VALID,104,VALID,0,VALID,22.9731,VALID,344,VALID,0,
2011-03-28, 03:45:05,VALID,1007.9,VALID,0,VALID,104,VALID,0,VALID,22.9926,VALID,344,VALID,0,
2011-03-28, 03:46:05,VALID,1007.9,VALID,0,VALID,104,VALID,0,VALID,22.9731,VALID,344,VALID,0,
2011-03-28, 03:47:05,VALID,1007.88,VALID,0,VALID,104,VALID,0,VALID,22.9926,VALID,344,VALID,0,
2011-03-28, 03:48:05,VALID,1007.88,VALID,0,VALID,104,VALID,0,VALID,22.9731,VALID,344,VALID,0,
2011-03-28, 03:49:05,VALID,1007.86,VALID,0,VALID,104,VALID,0,VALID,22.9731,VALID,344,VALID,0,
2011-03-28, 03:50:05,VALID,1007.86,VALID,0,VALID,104,VALID,0,VALID,22.9731,VALID,344,VALID,0,
2011-03-28, 03:51:05,VALID,1007.84,VALID,0,VALID,104,VALID,0,VALID,22.9926,VALID,344,VALID,0,
2011-03-28, 03:52:05,VALID,1007.83,VALID,0,VALID,104,VALID,0,VALID,22.9731,VALID,344,VALID,0,
2011-03-28, 03:53:05,VALID,1007.82,VALID,0,VALID,104,VALID,0,VALID,22.9731,VALID,344,VALID,0,
2011-03-28, 03:54:05,VALID,1007.81,VALID,0,VALID,104,VALID,0,VALID,22.9731,VALID,344,VALID,0,
2011-03-28, 03:55:05,VALID,1007.78,VALID,0,VALID,104,VALID,0,VALID,22.9926,VALID,344,VALID,0,
2011-03-28, 03:56:05,VALID,1007.76,VALID,0,VALID,104,VALID,0,VALID,23.0121,VALID,344,VALID,0,
2011-03-28, 03:57:05,VALID,1007.78,VALID,0,VALID,104,VALID,0,VALID,23.0121,VALID,344,VALID,0,
2011-03-28, 03:58:05,VALID,1007.79,VALID,0,VALID,104,VALID,0,VALID,22.9926,VALID,344,VALID,0,
2011-03-28, 03:59:05,VALID,1007.78,VALID,0,VALID,104,VALID,0,VALID,22.9926,VALID,344,VALID,0,
2011-03-28, 04:00:05,VALID,1007.76,VALID,0,VALID,104,VALID,0,VALID,23.0121,VALID,344,VALID,0,
2011-03-28, 04:01:05,VALID,1007.74,VALID,0,VALID,104,VALID,0,VALID,23.0316,VALID,344,VALID,0,
2011-03-28, 04:02:05,VALID,1007.73,VALID,0,VALID,104,VALID,0,VALID,23.0511,VALID,344,VALID,0,
2011-03-28, 04:03:05,VALID,1007.68,VALID,0,VALID,104,VALID,0,VALID,23.0316,VALID,344,VALID,0,